Lapse_Rate
9.4 9.4 9.5 6.7 4.0 5.9 5.2 6.8 8.0 7.8 5.0 4.3 5.7 6.8 7.9 6.9 3.4 4.1 4.5 3.9 4.7 6.7
9.2 9.0 9.2 8.1 6.6 4.8 6.0 5.2 4.1 3.7 3.6 3.6 4.2 5.6 4.9 3.0 3.7 3.7 2.9 3.6 4.9 6.7
8.1 7.7 7.6 7.2 6.5 6.0 5.2 4.7 3.4 2.8 3.0 2.2 3.5 3.7 3.6 3.0 2.9 3.7 4.0 4.7 5.0 6.6
6.9 5.3 5.6 6.5 6.0 6.5 6.0 5.2 4.1 4.2 2.2 3.0 2.7 3.0 3.8 4.0 3.8 3.7 3.6 4.2 6.6 9.3
6.6 5.9 5.1 5.4 5.7 5.2 4.0 2.6 2.5 2.1 1.4 2.5 2.7 1.9 1.8 4.1 4.2 4.5 4.8 6.3 9.2 9.6
5.6 5.0 3.4 2.2 1.5 1.0 1.0 0.4 0.8 2.3 2.4 2.6 2.1 1.8 3.6 4.1 4.6 5.1 6.6 8.5 9.7 9.5
2.8 2.2 1.6 1.2 0.9 0.6 0.9 1.7 2.0 2.2 2.0 2.8 3.4 4.1 4.5 4.8 5.3 6.7 7.8 9.3 9.8 9.6
1.9 1.8 1.5 1.6 1.2 1.3 1.9 2.0 2.2 2.7 3.2 3.8 4.5 4.6 4.5 5.4 6.2 7.5 8.2 9.2 9.6 9.7
2.7 2.2 2.3 2.4 2.4 2.1 2.3 2.7 3.7 4.3 4.3 4.0 4.3 3.7 3.3 4.6 6.3 7.3 8.9 9.3 9.6 9.9
5.3 5.2 5.6 5.8 5.0 4.5 5.0 4.5 4.1 3.8 3.9 4.5 5.9 4.1 4.1 4.1 7.5 9.4 9.5 9.5 9.6 9.7
8.7 7.8 7.7 7.1 7.6 6.1 5.2 5.2 5.7 5.9 6.6 7.2 8.0 5.6 4.3 3.9 7.6 8.5 9.6 9.7 9.8 9.9
8.3 7.2 7.2 6.5 6.2 7.1 6.6 7.1 8.0 8.4 9.2 9.5 9.6 5.7 5.5 5.0 8.3 9.1 9.4 9.7 9.8 9.8
9.2 9.1 8.6 7.4 7.5 7.7 9.1 9.5 9.6 9.5 9.6 7.5 9.2 4.6 5.3 5.6 7.2 7.3 8.6 8.7 9.4 7.8
7.8 8.1 9.5 9.5 9.6 9.5 9.5 9.4 9.3 8.4 9.3 9.5 9.2 9.0 6.2 5.1 6.1 6.6 5.7 6.6 7.7 9.1
Wind_Speed
17 12 11 7 8 10 8 9 9 11 11 6 7 10 7 7 4 7 2 4 4 3
14 15 12 13 13 7 7 5 7 10 8 9 10 9 10 5 6 4 4 3 4 4
11 10 8 6 12 9 9 9 11 12 10 9 10 12 9 6 6 4 2 3 4 10
9 9 7 7 6 7 10 10 10 9 9 7 9 8 7 7 6 5 5 7 11 13
9 7 6 6 5 3 4 6 8 10 9 11 10 8 9 7 4 5 7 11 12 12
7 6 7 8 8 8 9 9 9 8 7 7 8 9 7 7 7 9 11 12 12 11
8 8 8 8 7 8 8 9 9 9 10 9 8 7 7 7 8 10 12 11 12 11
9 9 8 8 8 8 8 9 9 9 8 7 6 5 5 6 8 8 11 12 12 13
10 11 10 11 11 10 10 9 10 9 6 5 3 6 7 8 7 11 12 13 13 14
13 12 12 13 12 11 11 9 7 6 4 4 6 7 9 9 10 11 12 13 13 14
13 13 12 11 11 10 7 7 6 5 5 7 8 10 8 5 9 11 14 15 16 15
12 11 11 10 9 7 6 5 5 6 6 3 4 7 1 5 9 11 14 14 16 16
10 10 8 7 6 7 7 4 1 1 2 3 5 13 10 9 7 11 10 13 16 17
9 8 7 6 5 3 3 2 2 1 3 5 5 4 11 10 8 8 10 11 11 11
Wind_Direction
218 220 219 188 179 213 199 208 197 205 198 190 218 218 154 145 133 168 147 119 253 331
217 220 222 205 213 201 213 152 163 175 176 182 214 126 132 121 155 123 152 191 194 251
210 215 221 204 215 203 198 187 178 176 185 153 142 131 146 149 113 134 169 202 225 242
190 199 220 212 213 220 217 204 190 164 129 122 118 143 161 153 140 171 194 230 240 247
183 183 201 202 201 193 94 100 127 130 135 146 152 151 137 139 169 217 241 247 252 250
133 157 95 92 96 103 112 113 117 129 144 140 131 144 150 168 196 226 245 252 255 252
91 92 96 102 106 113 121 131 141 126 125 139 147 146 175 198 232 248 252 260 261 261
95 97 105 112 118 115 117 115 118 122 122 130 149 177 202 228 251 272 278 268 262 255
105 106 112 111 112 114 112 119 125 130 135 133 171 208 226 246 270 269 268 269 275 268
123 118 120 119 116 114 125 129 121 118 133 191 233 218 226 235 268 274 276 279 283 284
119 118 120 123 117 115 121 129 142 173 215 246 252 215 218 212 279 280 280 281 283 282
118 120 119 118 126 129 145 176 199 216 219 268 320 129 119 323 306 298 298 298 296 295
121 121 119 128 152 177 186 160 112 344 340 54 297 82 59 15 324 314 312 308 306 311
116 142 144 125 117 127 114 82 78 282 338 325 4 21 59 35 343 332 325 311 306 302